K7OLI-13 Weather Reports


Display with metric or nautical units.
time (UTC)temp
F
wind
direction
speed
MPH
gust
MPH
rain 1hr
in
rain 24hr
in
rain mn
in
humidity
%
barometer
mb
20260510182546 66 88 3.0 4.0 0.00 0.00 0.00 66 1016.2
20260510181557 65 45 4.0 6.0 0.00 0.00 0.00 66 1016.2
20260510180527 64 82 3.0 5.0 0.00 0.00 0.00 67 1016.2
20260510175533 65 22 3.0 5.0 0.00 0.00 0.00 66 1016.2
20260510174543 64 91 4.0 6.0 0.00 0.00 0.00 67 1016.2
20260510173531 63 192 2.0 2.0 0.00 0.00 0.00 68 1016.2
20260510172520 64 188 4.0 6.0 0.00 0.00 0.00 66 1016.2
20260510171528 64 236 1.0 3.0 0.00 0.00 0.00 66 1016.2
20260510170527 63 46 3.0 4.0 0.00 0.00 0.00 68 1016.2
20260510165527 64 24 4.0 6.0 0.00 0.00 0.00 66 1016.2
20260510164533 67 270 2.0 4.0 0.00 0.00 0.00 61 1016.2
20260510163522 64 176 3.0 4.0 0.00 0.00 0.00 67 1016.2
20260510162530 65 233 2.0 4.0 0.00 0.00 0.00 67 1016.2
20260510161520 64 180 2.0 4.0 0.00 0.00 0.00 69 1016.2
20260510160528 61 161 3.0 5.0 0.00 0.00 0.00 74 1016.2
20260510155536 60 224 4.0 7.0 0.00 0.00 0.00 75 1016.2
20260510154527 60 180 4.0 6.0 0.00 0.00 0.00 74 1016.2
20260510153533 59 189 5.0 7.0 0.00 0.00 0.00 76 1016.2
20260510152522 59 186 3.0 5.0 0.00 0.00 0.00 78 1016.2
20260510151530 56 212 5.0 6.0 0.00 0.00 0.00 82 1016.2
20260510150519 56 234 4.0 5.0 0.00 0.00 0.00 83 1015.2
20260510145527 55 193 5.0 7.0 0.00 0.00 0.00 84 1015.2
20260510144535 55 207 4.0 6.0 0.00 0.00 0.00 86 1015.2
20260510143607 54 203 4.0 7.0 0.00 0.00 0.00 87 1015.2
20260510142535 54 203 3.0 4.0 0.00 0.00 0.00 88 1015.2
20260510141522 54 188 5.0 6.0 0.00 0.00 0.00 89 1015.2
20260510140550 53 205 5.0 7.0 0.00 0.00 0.00 90 1015.2
20260510135520 53 214 5.0 7.0 0.00 0.00 0.00 90 1014.4
20260510134527 53 213 6.0 8.0 0.00 0.00 0.00 90 1014.2
20260510133535 53 206 5.0 7.0 0.00 0.00 0.00 91 1015.2
20260510132544 53 204 6.0 7.0 0.00 0.00 0.00 91 1014.4
20260510131531 53 203 7.0 10.0 0.00 0.00 0.00 92 1014.2
20260510130521 53 218 5.0 7.0 0.00 0.00 0.00 92 1014.2
20260510125520 53 217 6.0 9.0 0.00 0.00 0.00 92 1014.2
20260510124536 53 213 6.0 9.0 0.00 0.00 0.00 92 1014.2
20260510123527 53 213 4.0 7.0 0.00 0.00 0.00 91 1014.2
20260510122555 53 211 6.0 8.0 0.00 0.00 0.00 91 1014.2
20260510121524 53 216 5.0 9.0 0.00 0.00 0.00 91 1014.2
20260510120532 53 189 6.0 8.0 0.00 0.00 0.00 91 1014.2
20260510115520 53 219 5.0 10.0 0.00 0.00 0.00 91 1014.2
20260510114529 53 215 5.0 8.0 0.00 0.00 0.00 91 1014.2
20260510113537 53 214 4.0 5.0 0.00 0.00 0.00 91 1014.2
20260510112547 53 215 6.0 7.0 0.00 0.00 0.00 91 1014.2
20260510111535 53 210 6.0 8.0 0.00 0.00 0.00 91 1014.2
20260510110523 53 203 7.0 10.0 0.00 0.00 0.00 91 1014.2
20260510105523 53 204 7.0 10.0 0.00 0.00 0.00 91 1013.4
20260510104519 53 214 8.0 11.0 0.00 0.00 0.00 91 1013.2
20260510103548 53 202 6.0 8.0 0.00 0.00 0.00 90 1013.2
20260510102536 53 203 7.0 9.0 0.00 0.00 0.00 90 1013.2
20260510101524 54 207 9.0 11.0 0.00 0.00 0.00 90 1013.2
20260510100536 54 197 7.0 9.0 0.00 0.00 0.00 90 1013.2
20260510095523 54 210 7.0 9.0 0.00 0.00 0.00 90 1013.2
20260510094529 54 194 7.0 10.0 0.00 0.00 0.00 90 1013.2
20260510093557 54 196 6.0 10.0 0.00 0.00 0.00 90 1012.2
20260510092528 54 215 8.0 10.0 0.00 0.00 0.00 90 1012.2
20260510091544 54 221 10.0 15.0 0.00 0.00 0.00 90 1012.2
20260510090523 55 221 10.0 13.0 0.00 0.00 0.00 90 1013.2
20260510085525 55 201 10.0 15.0 0.00 0.00 0.00 89 1012.4
20260510084521 55 223 8.0 10.0 0.00 0.00 0.00 89 1012.2
20260510083528 55 213 6.0 10.0 0.00 0.00 0.00 89 1012.2
20260510082556 55 223 6.0 9.0 0.00 0.00 0.00 88 1012.2
20260510081528 56 216 7.0 9.0 0.00 0.00 0.00 88 1012.2
20260510080536 56 215 7.0 11.0 0.00 0.00 0.00 88 1012.2
20260510075528 56 210 8.0 10.0 0.00 0.00 0.00 88 1012.2
20260510074552 56 220 7.0 10.0 0.00 0.00 0.00 88 1012.2
20260510073601 56 217 8.0 12.0 0.00 0.00 0.00 87 1012.2
20260510072528 57 231 7.0 9.0 0.00 0.00 0.00 86 1012.2
20260510071536 57 225 8.0 10.0 0.00 0.00 0.00 85 1012.2
20260510070527 58 220 9.0 10.0 0.00 0.00 0.00 84 1012.2
20260510065528 58 226 9.0 12.0 0.00 0.00 0.00 82 1012.2
20260510064543 59 214 6.0 9.0 0.00 0.00 0.00 80 1012.2
20260510063530 60 222 6.0 8.0 0.00 0.00 0.00 78 1012.2
20260510062538 60 211 5.0 7.0 0.00 0.00 0.00 76 1012.2
20260510061548 61 210 4.0 5.0 0.00 0.00 0.00 76
20260510060538 61 223 4.0 6.0 0.00 0.00 0.00 75 1012.2
20260510055527 62 220 3.0 6.0 0.00 0.00 0.00 74 1012.2
20260510054533 62 216 3.0 4.0 0.00 0.00 0.00 74 1012.2
20260510053603 63 215 3.0 6.0 0.00 0.00 0.00 72 1012.2
20260510052530 63 197 4.0 7.0 0.00 0.00 0.00 72 1012.2
20260510051538 63 223 4.0 6.0 0.00 0.00 0.00 71 1012.2
20260510050539 64 213 6.0 7.0 0.00 0.00 0.00 70 1012.2
20260510045529 64 225 7.0 8.0 0.00 0.00 0.00 69 1011.5
20260510044519 65 238 9.0 13.0 0.00 0.00 0.00 68 1011.2
20260510043532 65 227 7.0 10.0 0.00 0.00 0.00 67 1011.2
20260510042522 66 228 8.0 12.0 0.00 0.00 0.00 67 1011.2
20260510041529 66 213 8.0 12.0 0.00 0.00 0.00 66 1011.2
20260510040540 66 223 9.0 11.0 0.00 0.00 0.00 66 1011.2
20260510035530 67 223 8.0 11.0 0.00 0.00 0.00 65 1011.2
20260510034520 68 217 9.0 12.0 0.00 0.00 0.00 63 1011.2
20260510033523 69 220 8.0 13.0 0.00 0.00 0.00 61 1011.2
20260510032532 70 221 8.0 10.0 0.00 0.00 0.00 58 1011.2
20260510031542 72 231 6.0 9.0 0.00 0.00 0.00 54 1011.2
20260510030529 75 232 2.0 3.0 0.00 0.00 0.00 45 1011.2
20260510025611 77 225 0.0 1.0 0.00 0.00 0.00 42 1011.2
20260510024525 78 220 1.0 2.0 0.00 0.00 0.00 41 1011.2
20260510023534 78 237 2.0 3.0 0.00 0.00 0.00 41 1011.2
20260510022524 77 297 0.0 2.0 0.00 0.00 0.00 42 1011.2
20260510021532 77 350 1.0 2.0 0.00 0.00 0.00 41 1011.2
20260510020541 77 0.0 0.0 0.00 0.00 0.00 41 1011.2
20260510015532 78 285 2.0 4.0 0.00 0.00 0.00 41 1011.2
20260510014543 77 337 3.0 4.0 0.00 0.00 0.00 41 1011.2
20260510013528 78 360 3.0 5.0 0.00 0.00 0.00 40 1011.2
20260510012536 78 5 2.0 3.0 0.00 0.00 0.00 39 1011.2
20260510011524 78 345 3.0 4.0 0.00 0.00 0.00 38 1011.2
20260510010531 78 322 2.0 4.0 0.00 0.00 0.00 37 1011.2
20260510005521 78 261 3.0 5.0 0.00 0.00 0.00 38 1011.2
20260510004543 79 260 2.0 5.0 0.00 0.00 0.00 36 1011.2
20260510003557 78 52 4.0 5.0 0.00 0.00 0.00 38 1012.2
20260510001041 79 11 4.0 6.0 0.00 0.00 0.00 35 1012.2
20260510000028 79 295 4.0 6.0 0.00 0.00 0.00 36 1012.2
20260509235029 78 40 4.0 5.0 0.00 0.00 0.00 36 1012.2
20260509234019 78 347 5.0 9.0 0.00 0.00 0.00 38 1012.2
20260509233032 79 275 4.0 6.0 0.00 0.00 0.00 40 1012.2
20260509232025 77 345 5.0 8.0 0.00 0.00 0.00 41 1012.2
20260509231032 78 39 7.0 8.0 0.00 0.00 0.00 42 1012.2
20260509230019 79 279 3.0 4.0 0.00 0.00 0.00 40 1012.2
20260509225029 78 29 4.0 7.0 0.00 0.00 0.00 42 1013.2
20260509224020 78 304 6.0 8.0 0.00 0.00 0.00 41 1013.2
20260509223024 79 298 5.0 8.0 0.00 0.00 0.00 43 1013.2
20260509222035 78 275 5.0 7.0 0.00 0.00 0.00 43 1013.2
20260509221021 78 280 5.0 8.0 0.00 0.00 0.00 45 1013.2
20260509220032 78 279 3.0 5.0 0.00 0.00 0.00 45 1013.2
20260509215019 78 257 6.0 9.0 0.00 0.00 0.00 45 1014.2
20260509214021 78 268 4.0 7.0 0.00 0.00 0.00 45 1014.2
20260509213035 77 258 3.0 7.0 0.00 0.00 0.00 45 1014.2
20260509212042 78 311 4.0 6.0 0.00 0.00 0.00 43 1014.2
20260509211032 77 268 4.0 6.0 0.00 0.00 0.00 45 1014.2
20260509210024 76 344 5.0 8.0 0.00 0.00 0.00 45 1014.2
20260509205031 75 324 5.0 8.0 0.00 0.00 0.00 46 1014.2
20260509204042 75 283 5.0 8.0 0.00 0.00 0.00 48 1014.2
20260509203027 75 256 4.0 8.0 0.00 0.00 0.00 47 1014.2
20260509202055 74 280 5.0 7.0 0.00 0.00 0.00 50 1015.2
20260509201044 74 242 8.0 10.0 0.00 0.00 0.00 51 1015.2
20260509200241 72 239 3.0 4.0 0.00 0.00 0.00 55
20260509195230 73 250 6.0 8.0 0.00 0.00 0.00 53 1015.2
20260509194043 73 237 6.0 9.0 0.00 0.00 0.00 54 1015.2
20260509193037 71 260 6.0 10.0 0.00 0.00 0.00 57 1015.2
20260509192026 71 269 4.0 8.0 0.00 0.00 0.00 58 1015.2
20260509191034 71 291 5.0 9.0 0.00 0.00 0.00 58 1016.0
20260509190104 70 297 5.0 9.0 0.00 0.00 0.00 59 1016.2
20260509185034 71 259 8.0 13.0 0.00 0.00 0.00 60 1016.2
20260509184021 71 248 7.0 9.0 0.00 0.00 0.00 59 1016.2